Accueil
METAR-TAF:

METAR-TAF

Aéroports :

Aitutaki, Îles Cook

latitude: 18-49-51S, longitude: 159-45-51W, altitude: 4 m

Observation

Le bulletin a été fait il y a 27 minutes, à 22:00 UTC
Vent 10 kt de est/sud-est, variant entre est et sud/sud-est
Température 42°C
Humidité 72%
Pression 1018 hPa

METAR: NCAI 232200Z AUTO 12010KT 090V160 //// ////// 42/36 Q1018

Heure: 12:27 (22:27 UTC)


TAF: absent

Observations et prévisions météorologiques de plus de 4000 aéroports (messages METAR et TAF).

Les stations disponibles sont représentées par des disques jaunes et rouges sur la carte.

Passer la souris dessus pour voir le nom de la station.

Cliquer dessus pour voir les observations et prévisions météorologiques.

Pour changer de carte: cliquez sur les boutons verts avec une croix noire pour zoomer, sur le bouton vert avec un tiret pour effectuer un zoom arrière, ou sur les flèches vertes pour les cartes adjacentes.


METAR-TAF: